Overview Statistics Trail Chart Weather Telemetry Raw packets
 

This is the latest recevied weather packets stored in our database for station/object SV9TNF-57. If no packets are shown the sender has not sent any weather packets the latest 10 day(s).

<< 110 111 112 113 114 115 >>
Time Temp. Humidity Pressure Rain* Wind** Luminosity Snow
1787827891 34.44° C 31% 995.7 hPa 0 mm 12.96 m/s, 356° - -
1787827591 34.44° C 30% 995.5 hPa 0 mm 15.2 m/s, 292° - -
1787827291 34.44° C 31% 995.7 hPa 0 mm 16.54 m/s, 302° - -
1787826991 34.44° C 30% 995.7 hPa 0 mm 9.83 m/s, 336° - -
1787826691 35° C 30% 995.9 hPa 0 mm 9.83 m/s, 280° - -
1787826391 34.44° C 30% 995.6 hPa 0 mm 13.41 m/s, 309° - -
1787826090 33.89° C 30% 995.8 hPa 0 mm 15.2 m/s, 292° - -
1787825790 33.89° C 31% 995.8 hPa 0 mm 12.96 m/s, 298° - -
1787825491 34.44° C 30% 995.8 hPa 0 mm 15.65 m/s, 313° - -
1787825190 34.44° C 31% 996 hPa 0 mm 15.65 m/s, 319° - -
1787824890 35° C 30% 995.7 hPa 0 mm 8.49 m/s, 324° - -
1787824594 34.44° C 31% 995.7 hPa 0 mm 9.83 m/s, 174° - -
1787824290 34.44° C 31% 996 hPa 0 mm 8.05 m/s, 324° - -
1787823990 34.44° C 30% 995.8 hPa 0 mm 12.96 m/s, 318° - -
1787823690 34.44° C 31% 995.7 hPa 0 mm 4.47 m/s, 138° - -
1787823390 34.44° C 30% 995.7 hPa 0 mm 7.15 m/s, 322° - -
1787823089 34.44° C 30% 995.9 hPa 0 mm 11.62 m/s, 0° - -
1787822790 34.44° C 29% 995.9 hPa 0 mm 12.96 m/s, 286° - -
1787822489 34.44° C 30% 995.9 hPa 0 mm 10.28 m/s, 310° - -
1787822190 35° C 30% 995.7 hPa 0 mm 13.41 m/s, 1° - -
1787821889 34.44° C 31% 995.7 hPa 0 mm 7.15 m/s, 324° - -
1787821589 34.44° C 30% 995.8 hPa 0 mm 4.47 m/s, 43° - -
1787821289 34.44° C 30% 995.7 hPa 0 mm 5.36 m/s, 20° - -
1787820989 34.44° C 31% 995.7 hPa 0 mm 11.62 m/s, 261° - -
1787820689 34.44° C 30% 995.7 hPa 0 mm 9.39 m/s, 321° - -

* Rain latest hour (hover to see other rain measurements)
** Current wind speed in m/s (hover to see current wind gust speed)